Regional Weather Roundup
Issued by NWS Newport/Morehead, NC

Current Version | Previous Version | Graphics & Text | Print | Product List | Glossary On
Versions: 1 2 3 4 5 6 7 8 9 10 11 12 13 14 15 16 17 18 19 20 21 22 23 24 25 26 27 28 29 30 31 32 33 34 35 36 37 38 39 40 41 42 43 44 45 46 47 48 49 50
000 ASUS42 KMHX 241313 RWRMHX WEATHER ROUNDUP FOR EASTERN NORTH CAROLINA NATIONAL WEATHER SERVICE NEWPORT/MOREHEAD CITY NC 900 AM EDT SUN JUL 24 2016 NOTE: "FAIR" INDICATES FEW OR NO CLOUDS BELOW 12,000 FEET WITH NO SIGNIFICANT WEATHER AND/OR OBSTRUCTIONS TO VISIBILITY NCZ015>017-031-032-045>047-102-103-241400- NORTH COAST CITY SKY/WX TMP DP RH WIND PRES REMARKS EDENTON SUNNY 83 72 70 W6 30.02S ELIZABETH CITY SUNNY 82 75 79 W6 30.01R KITTY HAWK SUNNY 85 75 71 W5 30.00S MANTEO N/A 83 78 84 W7 30.01S $$ NCZ045>047-081-094-103-104-241400- CENTRAL COAST CITY SKY/WX TMP DP RH WIND PRES REMARKS FRISCO MOSUNNY 83 77 82 SW9 30.03R $$ NCZ095-097-098-100-101-241400- SOUTHERN COAST CITY SKY/WX TMP DP RH WIND PRES REMARKS BEAUFORT MOSUNNY 85 77 77 SW10 30.03R CEDAR ISLAND NOT AVBL JACKSONVILLE SUNNY 84 76 76 SW6 30.03R PINEY ISLAND NOT AVBL WILMINGTON SUNNY 84 76 76 SW10 30.03R $$ NCZ011>013-027>030-043-044-078>080-089-090>093-098-241400- COASTAL PLAIN CITY SKY/WX TMP DP RH WIND PRES REMARKS AHOSKIE SUNNY 80 75 85 CALM 30.01S CLINTON MOSUNNY 80 77 90 W3 30.03S ELIZABETHTOWN SUNNY 81 77 86 SW3 30.03S GOLDSBORO MOSUNNY 80 80 100 W7 30.01R GREENVILLE SUNNY 81 77 89 SW5 30.03S HAVELOCK MOSUNNY 84 77 79 W9 30.04R KENANSVILLE NOT AVBL KINSTON SUNNY 82 75 78 W6 30.03R NEW BERN SUNNY 84 77 79 W6 30.04R RICHLANDS MOSUNNY 84 78 82 SW6 30.04 ROCKY MOUNT SUNNY 80 75 84 W5 30.02S WASHINGTON SUNNY 81 76 84 SW5 30.02R WHITEVILLE SUNNY 82 76 83 S5 30.03R $$ AMZ130-135-150-152-154-156-158-170-250-252-270-ANZ085-086-088-633-658-670-241400- MARINE OBSERVATIONS STATION/POSITION TIME TEMP WIND PRES WAVE SWELL AIR SEA DIR/SP/G HT/PER HT/PER (UTC) (F) (DEG/KT/KT) (MB) (FT/S) (FT/S) CHESAPEAKE LIGHT NOT AVBL 64 E VA BEACH 1250 81 81 250/ 14/ 17 1015.0 3/ 5 2/ 9 DUCK 1200 81 60 250/ 10/ 13 1015.3 2 E DUCK 1211 67 N/A 1/ 9 OREGON INLET 1200 81 85 240/ 14/ 16 1016.1 13E OREGON INLT 1300 82 N/A 2/ 9 2/ 9 HATTERAS CG 1200 83 82 240/ 8/ 10 1016.1 DIAMOND BUOY 1250 84 86 260/ 12/ 16 1016.7 3/ 4 2/ 9 CAPE LOOKOUT 1300 85 240/ 5/ 7 1016.8 BEAUFORT LAB 1200 85 83 220/ 4/ 7 1016.0 30 SE NEW RVR IN 1208 84 85 240/ 8/ 10 1017.0 30 SE NEW RVR IN 1225 85 N/A 2/ 4 27 SE WRIGHTSVLE 1208 85 84 240/ 8/ 10 1017.1 5 SE WRIGHTSVLE 1208 83 83 240/ 6/ 10 1017.7 225 S CAPE HAT 1250 83 84 80/ 2/ 4 1018.3 2/ 9 2/ 9 41 SE CHARLESTON 1250 85 86 240/ 10/ 14 1016.8 3/ 4 2/ 8 $$

USA.gov is the U.S. government's official web portal to all federal, state and local government web resources and services.